User: anonymous   Login
Location: Oshawa
(43.9000°N, 78.8670°W)
Time: 06:14:50
(UTC-04:00)
Language:

PAYLOAD A - Orbit

View from above orbital plane
View from above orbital plane
View from above satellite
View from above satellite

Ground track
Ground track

The orbit data is extracted from the following two-line orbital elements,

1 27840U 03031A   16207.12206370 -.00000021  00000-0  69204-5 0  9995
2 27840  98.1963 212.9313 0098841  25.7878 334.8190 14.38859640686283
Epoch (UTC): 25 July 2016 02:55:46
Eccentricity: 0.0098841
inclination: 98.1963°
perigee height: 691 km
apogee height: 833 km
right ascension of ascending node: 212.9313°
argument of perigee: 25.7878°
revolutions per day: 14.38859640
mean anomaly at epoch: 334.8190°
orbit number at epoch: 68628

The dashed part of the orbit path shows where the satellite is in the earth's shadow,  

DLR